KOREASAT 6

Last updated on Sun Jun 21 2026 00:03:05 GMT+0000 (Coordinated Universal Time)

1 37265U 10070B 26171.37822667 -.00000116 00000+0 00000+0 0 9996 2 37265 0.0229 68.4332 0002243 29.4098 106.7797 1.00271058 56807
UTC large
Height (km)
Speed (km/s)
/
Latitude / Longitude
Inclination (degrees)
Orbital Period (minutes)
Azimuth
Elevation
Range (km)
Doppler Factor

Next 0 passes for location: London (51.5072 / 0.1276)

No passes found over London.
KOREASAT 6